When you browse on this site, cookies collect data to enhance your experience and personalize the content and advertising you see.
Visit our Privacy Policy to learn more. By continuing to use the site, you agree to this use of cookies and data.

Stündliche Wetter Frankfurt am Main

Heute, 3 Juli, Freitag

Zeit Temperatur Niederschläge Wind Luftdruck Luftfeuchtigkeit
00:00 +16°C° 0 mm 2 m/S 752 mmHg 78%
01:00 +16°C° 0 mm 1 m/S 752 mmHg 80%
02:00 +15°C° 0 mm 1 m/S 752 mmHg 81%
03:00 +15°C° 0 mm 1 m/S 752 mmHg 82%
04:00 +14°C° 0 mm 1 m/S 752 mmHg 83%
05:00 +15°C° 0 mm 1 m/S 753 mmHg 79%
06:00 +16°C° 0 mm 1 m/S 753 mmHg 76%
07:00 +17°C° 0 mm 2 m/S 753 mmHg 70%
08:00 +18°C° 0 mm 2 m/S 754 mmHg 62%
09:00 +20°C° 0 mm 3 m/S 754 mmHg 54%
10:00 +21°C° 0 mm 3 m/S 754 mmHg 46%
11:00 +22°C° 0 mm 3 m/S 754 mmHg 44%
12:00 +24°C° 0 mm 3 m/S 754 mmHg 42%
13:00 +25°C° 0 mm 3 m/S 754 mmHg 40%
14:00 +25°C° 0 mm 3 m/S 753 mmHg 40%
15:00 +26°C° 0 mm 3 m/S 753 mmHg 41%
16:00 +26°C° 0 mm 3 m/S 753 mmHg 41%
17:00 +25°C° 0 mm 3 m/S 753 mmHg 45%
18:00 +25°C° 0 mm 3 m/S 753 mmHg 49%
19:00 +24°C° 0 mm 3 m/S 753 mmHg 53%
20:00 +21°C° 0 mm 2 m/S 754 mmHg 57%
21:00 +20°C° 0 mm 2 m/S 754 mmHg 62%
22:00 +19°C° 0 mm 2 m/S 754 mmHg 66%
23:00 +18°C° 0 mm 2 m/S 754 mmHg 70%

Morgen, 4 Juli, Samstag

Zeit Temperatur Niederschläge Wind Luftdruck Luftfeuchtigkeit
00:00 +17°C° 0 mm 2 m/S 754 mmHg 74%
01:00 +17°C° 0 mm 2 m/S 754 mmHg 78%
02:00 +16°C° 0 mm 2 m/S 754 mmHg 80%
03:00 +16°C° 0 mm 2 m/S 754 mmHg 81%
04:00 +15°C° 0 mm 1 m/S 754 mmHg 83%
05:00 +16°C° 0 mm 2 m/S 754 mmHg 79%
06:00 +17°C° 0 mm 2 m/S 754 mmHg 74%
07:00 +18°C° 0 mm 3 m/S 754 mmHg 70%
08:00 +19°C° 0 mm 3 m/S 754 mmHg 65%
09:00 +21°C° 0 mm 4 m/S 754 mmHg 59%
10:00 +22°C° 0 mm 4 m/S 754 mmHg 53%
11:00 +23°C° 0 mm 4 m/S 754 mmHg 52%
12:00 +23°C° 0 mm 4 m/S 754 mmHg 51%
13:00 +25°C° 0 mm 5 m/S 753 mmHg 50%
14:00 +25°C° 0 mm 5 m/S 753 mmHg 51%
15:00 +25°C° 0 mm 5 m/S 753 mmHg 51%
16:00 +25°C° 0 mm 5 m/S 753 mmHg 51%
17:00 +23°C° 0 mm 4 m/S 753 mmHg 55%
18:00 +22°C° 0 mm 4 m/S 753 mmHg 58%
19:00 +22°C° 0 mm 3 m/S 753 mmHg 62%
20:00 +21°C° 0 mm 3 m/S 753 mmHg 65%
21:00 +20°C° 0 mm 3 m/S 753 mmHg 69%
22:00 +20°C° 0 mm 3 m/S 753 mmHg 72%
23:00 +20°C° 0.1 mm 3 m/S 753 mmHg 75%

übermorgen, 5 Juli, Sonntag

Zeit Temperatur Niederschläge Wind Luftdruck Luftfeuchtigkeit
00:00 +20°C° 0.1 mm 3 m/S 753 mmHg 78%
01:00 +19°C° 0.1 mm 3 m/S 753 mmHg 81%
02:00 +19°C° 0.1 mm 3 m/S 752 mmHg 81%
03:00 +19°C° 0.1 mm 3 m/S 752 mmHg 82%
04:00 +19°C° 0.1 mm 4 m/S 752 mmHg 82%
05:00 +20°C° 0 mm 4 m/S 752 mmHg 83%
06:00 +20°C° 0 mm 4 m/S 752 mmHg 83%
07:00 +20°C° 0 mm 4 m/S 752 mmHg 84%
08:00 +20°C° 0 mm 4 m/S 752 mmHg 81%
09:00 +21°C° 0 mm 4 m/S 752 mmHg 77%
10:00 +22°C° 0 mm 5 m/S 752 mmHg 74%
11:00 +23°C° 0.1 mm 5 m/S 752 mmHg 72%
12:00 +23°C° 0.1 mm 5 m/S 752 mmHg 70%
13:00 +23°C° 0.1 mm 6 m/S 752 mmHg 69%
14:00 +24°C° 0.1 mm 6 m/S 751 mmHg 67%
15:00 +25°C° 0.1 mm 5 m/S 751 mmHg 65%
16:00 +25°C° 0.1 mm 5 m/S 751 mmHg 63%
17:00 +25°C° 0 mm 5 m/S 751 mmHg 65%
18:00 +25°C° 0 mm 5 m/S 750 mmHg 66%
19:00 +25°C° 0 mm 4 m/S 750 mmHg 67%
20:00 +23°C° 0 mm 4 m/S 750 mmHg 70%
21:00 +22°C° 0 mm 4 m/S 750 mmHg 73%
22:00 +21°C° 0 mm 4 m/S 750 mmHg 77%
23:00 +21°C° 0.1 mm 4 m/S 750 mmHg 78%

6 Juli, Montag

Zeit Temperatur Niederschläge Wind Luftdruck Luftfeuchtigkeit
00:00 +20°C° 0.1 mm 4 m/S 750 mmHg 79%
01:00 +19°C° 0.1 mm 4 m/S 750 mmHg 81%
02:00 +19°C° 0 mm 4 m/S 750 mmHg 80%
03:00 +18°C° 0 mm 4 m/S 750 mmHg 79%
04:00 +17°C° 0 mm 4 m/S 750 mmHg 78%
05:00 +15°C° 0 mm 4 m/S 750 mmHg 74%
06:00 +15°C° 0 mm 5 m/S 750 mmHg 70%
07:00 +15°C° 0 mm 5 m/S 751 mmHg 65%
08:00 +16°C° 0 mm 5 m/S 751 mmHg 60%
09:00 +17°C° 0 mm 5 m/S 751 mmHg 55%
10:00 +19°C° 0 mm 5 m/S 752 mmHg 50%
11:00 +19°C° 0 mm 5 m/S 752 mmHg 47%
12:00 +20°C° 0 mm 5 m/S 752 mmHg 45%
13:00 +21°C° 0 mm 5 m/S 752 mmHg 42%
14:00 +21°C° 0 mm 5 m/S 752 mmHg 43%
15:00 +21°C° 0 mm 5 m/S 752 mmHg 44%
16:00 +21°C° 0 mm 4 m/S 753 mmHg 44%
17:00 +20°C° 0 mm 4 m/S 753 mmHg 46%
18:00 +20°C° 0 mm 4 m/S 753 mmHg 48%
19:00 +19°C° 0 mm 3 m/S 753 mmHg 50%
20:00 +18°C° 0 mm 3 m/S 754 mmHg 55%
21:00 +17°C° 0 mm 3 m/S 754 mmHg 60%
22:00 +15°C° 0 mm 2 m/S 755 mmHg 66%
23:00 +15°C° 0 mm 2 m/S 755 mmHg 69%

7 Juli, Dienstag

Zeit Temperatur Niederschläge Wind Luftdruck Luftfeuchtigkeit
00:00 +14°C° 0 mm 2 m/S 755 mmHg 72%
01:00 +13°C° 0 mm 1 m/S 756 mmHg 76%
02:00 +13°C° 0 mm 1 m/S 756 mmHg 77%
03:00 +12°C° 0 mm 1 m/S 756 mmHg 79%
04:00 +12°C° 0 mm 1 m/S 756 mmHg 81%
05:00 +13°C° 0 mm 1 m/S 756 mmHg 77%
06:00 +14°C° 0 mm 1 m/S 756 mmHg 73%
07:00 +15°C° 0 mm 1 m/S 756 mmHg 69%
08:00 +18°C° 0 mm 1 m/S 756 mmHg 61%
09:00 +19°C° 0 mm 1 m/S 756 mmHg 54%
10:00 +20°C° 0 mm 2 m/S 756 mmHg 47%
11:00 +21°C° 0 mm 2 m/S 756 mmHg 44%
12:00 +23°C° 0 mm 2 m/S 755 mmHg 40%
13:00 +24°C° 0 mm 2 m/S 755 mmHg 37%
14:00 +24°C° 0 mm 3 m/S 755 mmHg 38%
15:00 +24°C° 0 mm 3 m/S 755 mmHg 38%
16:00 +24°C° 0 mm 3 m/S 755 mmHg 39%
17:00 +22°C° 0 mm 3 m/S 755 mmHg 43%
18:00 +23°C° 0 mm 2 m/S 755 mmHg 46%
19:00 +21°C° 0 mm 2 m/S 755 mmHg 50%
20:00 +19°C° 0 mm 2 m/S 756 mmHg 55%
21:00 +18°C° 0 mm 2 m/S 756 mmHg 61%
22:00 +16°C° 0 mm 2 m/S 757 mmHg 66%
23:00 +15°C° 0 mm 2 m/S 757 mmHg 70%

8 Juli, Mittwoch

Zeit Temperatur Niederschläge Wind Luftdruck Luftfeuchtigkeit
00:00 +15°C° 0 mm 2 m/S 757 mmHg 75%
01:00 +14°C° 0 mm 2 m/S 757 mmHg 79%
02:00 +13°C° 0 mm 2 m/S 757 mmHg 80%
03:00 +13°C° 0 mm 1 m/S 757 mmHg 81%
04:00 +12°C° 0 mm 1 m/S 757 mmHg 82%
05:00 +13°C° 0 mm 1 m/S 758 mmHg 77%
06:00 +14°C° 0 mm 1 m/S 758 mmHg 73%
07:00 +15°C° 0 mm 2 m/S 758 mmHg 69%
08:00 +18°C° 0 mm 1 m/S 758 mmHg 62%
09:00 +20°C° 0 mm 1 m/S 758 mmHg 55%
10:00 +22°C° 0 mm 1 m/S 758 mmHg 48%
11:00 +24°C° 0 mm 1 m/S 757 mmHg 43%
12:00 +25°C° 0 mm 1 m/S 757 mmHg 39%
13:00 +26°C° 0 mm 1 m/S 757 mmHg 35%
14:00 +26°C° 0 mm 1 m/S 756 mmHg 34%
15:00 +27°C° 0 mm 1 m/S 756 mmHg 32%
16:00 +27°C° 0 mm 1 m/S 756 mmHg 31%
17:00 +26°C° 0 mm 1 m/S 755 mmHg 36%
18:00 +25°C° 0 mm 1 m/S 755 mmHg 40%
19:00 +24°C° 0 mm 1 m/S 755 mmHg 45%
20:00 +22°C° 0 mm 1 m/S 755 mmHg 48%
21:00 +21°C° 0 mm 1 m/S 755 mmHg 51%
22:00 +17°C° 0 mm 0 m/S 755 mmHg 55%
23:00 +16°C° 0 mm 0 m/S 755 mmHg 57%
Mehr zeigen